Location: Kikino
(54.4440°N, 112.0940°W)
Time: 06:20:22
(UTC+00:00)

CAS-4B - Visible Passes

Search period start: 05 December 2023 00:00
Search period end: 15 December 2023 00:00
Orbit: 494 x 508 km, 43.0° (Epoch: 04 December)

Date Brightness Start Highest point End Pass type
(mag) Time Alt. Az. Time Alt. Az. Time Alt. Az.
05 Dec ? 00:24:06 10° SSW 00:26:23 15° S 00:28:39 10° SE visible
05 Dec ? 02:03:04 10° SW 02:04:45 12° SSW 02:05:16 12° S visible
06 Dec ? 00:02:14 10° SSW 00:04:31 15° S 00:06:48 10° SE visible
06 Dec ? 01:41:17 10° SW 01:42:53 12° SSW 01:44:29 10° S visible
07 Dec ? 01:19:29 10° SW 01:21:00 12° SSW 01:22:30 10° S visible
08 Dec ? 00:57:40 10° SW 00:59:05 12° SSW 01:00:31 10° S visible
09 Dec ? 00:35:50 10° SW 00:37:09 11° SSW 00:38:28 10° S visible
10 Dec ? 00:14:00 10° SW 00:15:12 11° SSW 00:16:23 10° S visible
10 Dec ? 23:52:11 10° SW 23:53:13 11° SSW 23:54:15 10° S visible
